CW8822 Caguas PR US current weather conditions

sailwx.info

Wind from 075

Air temperature 23.3° C
Dewpoint 21.8° C

Last reported at 2014-Dec-23 00:45 UTC.
Time now 2014-Dec-23 01:33 UTC

Location: N 18°12' W 066°01'.
View on Google Maps.

See reports from other nearby stations

  
Tides and Currents Weather Stations Pressure Air Temp Water Temp Dewpoint Dewpoint Depression Visibility Wind Speed Wind Dir Waves Ship Positions
date/time (UTC)wind fromknots sea level pressurealtimeterstation pressurevisibilityair tempwater tempwave heightnotes
2014-Dec-23 00:45 075 23.3
2014-Dec-23 00:30 074 23.3
2014-Dec-23 00:15 122 23.3
2014-Dec-23 00:00 095 0 gusting 4 23.3
2014-Dec-22 23:45 105 0 gusting 5 23.3
2014-Dec-22 23:30 096 0 gusting 5 23.3
2014-Dec-22 23:15 107 23.3
2014-Dec-22 23:00 107 23.9
2014-Dec-22 22:45 108 23.9
2014-Dec-22 22:30 107 23.9
2014-Dec-22 22:15 108 24.4
2014-Dec-22 22:00 123 24.4
2014-Dec-22 21:45 101 25.0
2014-Dec-22 21:30 133 0 gusting 5 25.0
2014-Dec-22 21:15 117 26.1
2014-Dec-22 21:00 059 26.1
2014-Dec-22 20:45 103 1 gusting 6 26.1
2014-Dec-22 20:30 148 1 gusting 9 26.7
2014-Dec-22 20:15 085 0 gusting 4 27.2
2014-Dec-22 20:00 091 1 gusting 8 26.7
2014-Dec-22 19:45 130 0 gusting 6 26.7
2014-Dec-22 19:30 103 0 gusting 6 27.2
2014-Dec-22 19:15 115 1 gusting 6 27.8
2014-Dec-22 19:00 157 1 gusting 6 27.2
2014-Dec-22 18:45 130 1 gusting 6 27.8
2014-Dec-22 18:30 148 1 gusting 6 27.8
2014-Dec-22 18:15 047 0 gusting 5 27.2
2014-Dec-22 18:00 092 0 gusting 5 27.2
2014-Dec-22 17:45 080 0 gusting 6 27.2
2014-Dec-22 17:30 104 2 gusting 6 27.2
2014-Dec-22 17:15 111 26.7
2014-Dec-22 17:00 113 0 gusting 5 26.7
2014-Dec-22 16:45 049 0 gusting 6 26.7
2014-Dec-22 16:30 057 27.8
2014-Dec-22 16:15 048 0 gusting 4 26.7
2014-Dec-22 16:00 078 1 gusting 7 26.7
2014-Dec-22 15:45 081 27.2
2014-Dec-22 15:30 078 27.2
2014-Dec-22 15:15 100 26.7
2014-Dec-22 15:00 053 0 gusting 6 26.1
2014-Dec-22 14:45 054 26.1
2014-Dec-22 14:30 056 0 gusting 4 26.1
2014-Dec-22 14:15 060 1 gusting 4 25.6
2014-Dec-22 14:00 059 25.0
2014-Dec-22 13:45 059 24.4
2014-Dec-22 13:30 059 23.9
2014-Dec-22 13:15 059 23.9
2014-Dec-22 12:59 059 23.3
2014-Dec-22 12:44 059 22.8
2014-Dec-22 12:29 059 22.8
2014-Dec-22 12:14 059 0 gusting 2 22.2
2014-Dec-22 11:59 059 21.7
2014-Dec-22 11:44 060 21.1
2014-Dec-22 11:29 060 20.0
2014-Dec-22 11:14 060 20.0
2014-Dec-22 10:59 060 20.0
2014-Dec-22 10:44 060 20.6
2014-Dec-22 10:29 060 0 gusting 2 20.6
2014-Dec-22 10:14 060 21.7
2014-Dec-22 09:59 060 20.6
2014-Dec-22 09:44 060 21.1
2014-Dec-22 09:29 060 21.1
2014-Dec-22 09:14 060 0 gusting 2 20.6
2014-Dec-22 08:59 060 21.1
2014-Dec-22 08:44 060 0 gusting 2 20.6
2014-Dec-22 08:29 060 20.6
2014-Dec-22 08:14 060 21.1
2014-Dec-22 07:59 060 21.1
2014-Dec-22 07:44 060 20.6
2014-Dec-22 07:29 060 20.6
2014-Dec-22 07:14 060 0 gusting 3 20.6
2014-Dec-22 06:59 060 20.6
2014-Dec-22 06:44 060 2 gusting 3 20.0
2014-Dec-22 06:29 060 20.0
2014-Dec-22 06:14 060 0 gusting 2 20.6
2014-Dec-22 05:59 060 0 gusting 3 20.6
2014-Dec-22 05:44 060 20.0
2014-Dec-22 05:29 060 20.6
2014-Dec-22 05:13 060 1 gusting 2 20.6
2014-Dec-22 04:58 060 20.6
2014-Dec-22 04:43 060 20.6
2014-Dec-22 04:28 060 20.6
2014-Dec-22 04:13 060 21.1
2014-Dec-22 03:58 060 21.1
2014-Dec-22 03:43 060 21.1
2014-Dec-22 03:28 060 0 gusting 1 21.7
2014-Dec-22 03:14 060 21.7
2014-Dec-22 02:58 060 21.7
2014-Dec-22 02:43 060 21.7
2014-Dec-22 02:28 060 21.1
2014-Dec-22 02:13 060 21.7
2014-Dec-22 01:58 060 1 gusting 2 21.7
2014-Dec-22 01:43 060 21.7
2014-Dec-22 01:28 060 21.7
2014-Dec-22 01:13 060 22.2
2014-Dec-22 00:58 060 22.2
2014-Dec-22 00:43 060 22.2
2014-Dec-22 00:28 060 22.2
2014-Dec-22 00:13 060 22.2
2014-Dec-21 23:58 060 22.8
2014-Dec-21 23:43 060 22.2
2014-Dec-21 23:28 060 22.2
2014-Dec-21 23:13 060 22.2
2014-Dec-21 22:58 060 22.2
2014-Dec-21 22:43 060 22.8
2014-Dec-21 22:28 060 22.8
2014-Dec-21 22:13 060 22.8
2014-Dec-21 21:58 064 23.3
2014-Dec-21 21:43 053 23.3
2014-Dec-21 21:28 301 23.9
2014-Dec-21 21:13 046 2 gusting 6 24.4
2014-Dec-21 20:58 044 0 gusting 6 25.0
2014-Dec-21 20:42 026 0 gusting 7 25.0
2014-Dec-21 20:27 040 1 gusting 4 25.6
2014-Dec-21 20:12 073 2 gusting 6 25.6
2014-Dec-21 19:57 061 1 gusting 6 25.0
2014-Dec-21 19:42 048 2 gusting 7 25.0
2014-Dec-21 19:27
2014-Dec-21 19:12
2014-Dec-21 18:49 049 3 gusting 6 26.7
2014-Dec-21 18:34 051 2 gusting 6 26.7
2014-Dec-21 18:19 082 27.8
2014-Dec-21 18:04 038 27.2
2014-Dec-21 17:49 038 0 gusting 4 26.1
2014-Dec-21 17:34 027 25.6
2014-Dec-21 17:19 021 4 gusting 8 25.6
2014-Dec-21 17:04 033 1 gusting 6 26.7
2014-Dec-21 16:49 052 27.8
2014-Dec-21 16:34 052 26.7
2014-Dec-21 16:19 053 0 gusting 4 26.1
2014-Dec-21 16:04 053 26.1
2014-Dec-21 15:49 053 25.6
2014-Dec-21 15:34 053 25.6
2014-Dec-21 15:19 053 25.6
2014-Dec-21 15:04 059 0 gusting 4 25.6
2014-Dec-21 14:49 060 25.0
2014-Dec-21 14:34 061 0 gusting 5 25.6
2014-Dec-21 14:19 061 25.6
2014-Dec-21 14:04 042 1 gusting 6 25.6
2014-Dec-21 13:48 066 0 gusting 5 25.0
2014-Dec-21 13:33 134 24.4
2014-Dec-21 13:18 066 24.4
2014-Dec-21 13:03 065 0 gusting 6 23.9
2014-Dec-21 12:48 101 23.3
2014-Dec-21 12:33 104 22.8
2014-Dec-21 12:18 104 22.2
2014-Dec-21 12:03 104 0 gusting 2 21.7
2014-Dec-21 11:48 104 21.1
2014-Dec-21 11:33 104 20.6
2014-Dec-21 11:18 034 20.6
2014-Dec-21 11:03 336 20.6
2014-Dec-21 10:48 113 0 gusting 1 20.6
2014-Dec-21 10:34 113 20.6
2014-Dec-21 10:17 113 21.1
2014-Dec-21 10:03 113 21.1
2014-Dec-21 09:47 113 20.6
2014-Dec-21 09:33 113 20.6
2014-Dec-21 09:17 113 20.6
2014-Dec-21 09:03 113 20.6
2014-Dec-21 08:47 113 20.6
2014-Dec-21 08:32 113 21.1
2014-Dec-21 08:17 113 21.1
2014-Dec-21 08:02 113 21.1
2014-Dec-21 07:47 113 0 gusting 5 21.1
2014-Dec-21 07:33 063 21.1
2014-Dec-21 07:17 063 21.1
2014-Dec-21 07:03 063 21.7
2014-Dec-21 06:46 063 21.1
2014-Dec-21 06:32 063 21.1
2014-Dec-21 06:17 063 21.7
2014-Dec-21 06:03 063 21.7
2014-Dec-21 05:47 063 21.7
2014-Dec-21 05:32 063 21.7
2014-Dec-21 05:17 148 21.7
2014-Dec-21 05:01 148 21.1
2014-Dec-21 04:47 148 21.7
2014-Dec-21 04:31 148 21.7
2014-Dec-21 04:17 148 22.2
2014-Dec-21 04:02 148 22.2
2014-Dec-21 03:46 059 22.2
2014-Dec-21 03:31 059 22.2
2014-Dec-21 03:17 059 22.8
2014-Dec-21 03:00 059 22.2
2014-Dec-21 02:46 058 22.2
2014-Dec-21 02:31 057 22.2
2014-Dec-21 02:16 057 22.8
2014-Dec-21 01:45 144 22.8
2014-Dec-21 01:31 144 22.8
2014-Dec-21 01:16 099 22.8
2014-Dec-21 01:00 114 3 gusting 7 22.2